Location: Ostrava
(49.8330°N, 18.2830°E)
Time: 05:57:30
(UTC+02:00)

Cosmos 2221 - Visible Passes

Search period start: 25 April 2014 00:00
Search period end: 05 May 2014 00:00
Orbit: 599 x 623 km, 82.5° (Epoch: 24 April)

Date Brightness Start Highest point End Pass type
(mag) Time Alt. Az. Time Alt. Az. Time Alt. Az.
25 Apr 4.9 00:45:32 10° NNE 00:48:14 16° ENE 00:49:16 15° E visible
25 Apr 2.5 02:22:06 10° NNW 02:26:15 65° WNW 02:26:15 65° WNW visible
26 Apr 4.3 00:59:47 10° NNE 01:03:22 24° ENE 01:03:56 23° E visible
26 Apr 3.2 02:37:09 10° NNW 02:40:55 39° W 02:40:55 39° W visible
27 Apr 3.6 01:14:19 10° N 01:18:24 38° ENE 01:18:36 37° E visible
27 Apr 3.9 02:52:24 10° NNW 02:55:35 24° W 02:55:35 24° W visible
28 Apr 2.8 01:29:02 10° N 01:33:17 62° ENE 01:33:17 62° ENE visible
28 Apr 4.5 03:08:01 10° NW 03:10:16 15° WNW 03:10:16 15° WNW visible
29 Apr 4.9 00:07:42 10° NNE 00:09:54 14° ENE 00:10:59 13° ENE visible
29 Apr 2.5 01:43:53 10° NNW 01:47:58 74° NW 01:47:58 74° NW visible
30 Apr 4.4 00:21:45 10° NNE 00:25:03 21° ENE 00:25:41 20° E visible
30 Apr 3.1 01:58:52 10° NNW 02:02:40 45° WNW 02:02:40 45° WNW visible
01 May 3.7 00:36:11 10° N 00:40:07 32° ENE 00:40:24 32° E visible
01 May 3.8 02:14:01 10° NNW 02:17:23 28° W 02:17:23 28° W visible
02 May 3.0 00:50:50 10° N 00:55:05 52° ENE 00:55:06 52° ENE visible
02 May 4.4 02:29:28 10° NW 02:32:05 18° W 02:32:05 18° W visible
02 May 5.0 23:29:59 10° NE 23:31:32 12° ENE 23:32:51 10° ENE visible
03 May 2.5 01:05:37 10° N 01:09:50 83° NNE 01:09:50 83° NNE visible
03 May 4.8 02:45:49 10° WNW 02:46:49 11° WNW 02:46:49 11° WNW visible
03 May 4.5 23:43:42 10° NNE 23:46:42 18° ENE 23:47:35 17° E visible
04 May 2.8 01:20:32 10° NNW 01:24:33 55° W 01:24:33 55° W visible
04 May 4.7 23:58:02 10° N 00:00:15 22° NE 00:00:00 21° NNE visible
